< < Back
Terminal Aerodrome Forecast


Current Version              Previous Versions:   1  2  3  4  5  6  7  8  9  

Terminal Aerodrome Forecast

501
FTUS42 KFFC 241700
TAFFTY
TAF
KFTY 241740Z 2418/2518 11005KT P6SM SCT060
     FM250000 16005KT P6SM BKN060
     FM250900 20006KT P6SM BKN050
     FM251200 23009KT P6SM SCT025 BKN050
     FM251500 24010G18KT P6SM BKN025=

Latest METAR

465
SAUS70 KWBC 250900 RRF
MTRFTY
METAR KFTY 250853Z 00000KT 10SM SCT110 19/14 A2982 RMK AO2 SLP089
T01940139 58031


USA.gov is the U.S. government's official web portal to all federal, state and local government web resources and services.